sat.trackr.live / text

‹ back to catalog

STARLINK-36521

NORAD 67507 · 2026-012Q

PAYLOAD ACTIVE UNKNOWN

§ Identity

Operator
Country
US
Launch date
2026-01-18
Launch site
AFETR
Launch vehicle
Mass (kg)
RCS (m²)

Purposes: comms

External: N2YO · Heavens-Above · Gunter

§ Orbital elements

Epoch: 2026-05-24T23:27:45.271584Z

Period
94.27 min
Inclination
43.0019°
Eccentricity
0.0001018
Mean motion
15.27583996 rev/d
Perigee alt
482.3 km
Apogee alt
483.7 km
Semi-major
6,861.2 km
B*
3.3769e-4
RAAN
243.1677°
Arg perigee
273.6266°
Mean anomaly
86.4469°
Rev number
1,943

§ Raw data

STARLINK-365211 67507U 26012Q   26144.97760731  .00009043  00000+0  33769-3 0  99992 67507  43.0019 243.1677 0001018 273.6266  86.4469 15.27583996 19435

JSON: /api/v1/satellites/67507 · /tle

For live sub-satellite position, see the globe view (requires WebGL).

§ Visibility from observer

Set your observer location to see the next 7 days of passes ≥ 10°. The values pass through the URL so the page stays shareable.

No JS? Fill the form by hand. The geolocation button needs JavaScript.